Regional Weather Roundup
Issued by NWS New Orleans/Baton Rouge, LA

Home | Current Version | Previous Version | Text Only | Print | Product List | Glossary On
Versions: 1 2 3 4 5 6 7 8 9 10 11 12 13 14 15 16 17 18 19 20 21 22 23 24 25 26 27 28 29 30 31 32 33 34 35 36 37 38 39 40 41 42 43 44 45 46 47 48 49 50
000
ASUS44 KLIX 021112
RWRLIX
NEW ORLEANS REGIONAL WEATHER ROUNDUP
NATIONAL WEATHER SERVICE NEW ORLEANS LA
600 AM CDT TUE JUN 02 2015

NOTE: "FAIR" INDICATES FEW OR NO CLOUDS BELOW 12,000 FEET WITH NO
      SIGNIFICANT WEATHER AND/OR OBSTRUCTIONS TO VISIBILITY.
      SKY/WX - SKY CONDITION AND SIGNIFICANT WEATHER.
      TMP - AIR TEMPERATURE.     DP    - DEWPOINT TEMPERATURE.
      RH  - RELATIVE HUMIDITY.   PRES  - PRESSURE.
      HI  - HEAT INDEX.          WCI   - WIND CHILL INDEX.

*  THESE STATIONS ARE NOT NWS OR FAA STATIONS AND ARE NOT UNDER
   NWS QUALITY CONTROL.

LAZ038-040-048-061>063-065>067-069-021200-
SOUTHEAST LOUISIANA

CITY           SKY/WX    TMP DP  RH WIND       PRES   REMARKS
N.O. AUDUBON     N/A     73  73 100 MISG        N/A
N.O. INTL ARPT MOCLDY    72  68  87 CALM      29.98S
N.O. LAKEFRONT PTCLDY    78  69  73 CALM      29.98S
SLIDELL        PTCLDY    71  71 100 NW3       29.97F
BATON ROUGE    PTCLDY    67  66  97 CALM      30.00S
BOOTHVILLE     CLOUDY    76  70  82 CALM      29.98S
BELLE CHASSE   MOCLDY    69  69 100 W3        29.97F FOG
BOGALUSA*        N/A     69  66  89 N3        30.00F
GALLIANO*      SUNNY     73  69  86 W3        29.98F
NEW ROADS*       N/A    N/A N/A N/A CALM      30.02R
GONZALES*        N/A     68  68 100 CALM      29.98S
HAMMOND*       CLEAR     68  66  94 N3        30.01R
HOUMA*         CLEAR     70  70 100 CALM      29.99S
PORT FOURCHON* PTSUNNY   75  70  83 CALM      29.99R

$$

MSZ070-080>082-021200-
SOUTHERN MISSISSIPPI

CITY           SKY/WX    TMP DP  RH WIND       PRES   REMARKS
MCCOMB         CLEAR     67  66  97 N3        30.01S
GULFPORT       MOCLDY    72  69  90 CALM      29.96F
BILOXI         PTCLDY    73  72  97 NE3       29.97S
PASCAGOULA     CLOUDY    71  70  96 NE3       29.97F

$$

COASTAL OBSERVATIONS
LAKE AND NEARSHORE STATIONS

STATION/POSITION TIME  TEMP    WIND        PRES    WAVE
                       AIR SEA DIR/SP/G            HT/PER
                 (UTC) (F)     (DEG/KT/KT) (MB)    (FT/S)
PASCAGOULA       1000   73     270/  6/  8 1014.8
WAVELAND YACHT   1000   73 83  330/  2/  3 1014.9
GRAND ISLE       1000   76 85  300/  4/  6 1015.2
SOUTHWEST PASS   1000   78 75  320/ 12/ 14 1015.5
NEW CANAL        1000   75 80  230/  3/  4 1014.4
SHELL BEACH      1000   76 85  250/  5/  6 1014.6

OFFSHORE STATIONS

STATION/POSITION TIME  TEMP    WIND        PRES    WAVE
                       AIR SEA DIR/SP/G            HT/PER
                 (UTC) (F)     (DEG/KT/KT) (MB)    (FT/S)
64 S DAUPHIN ISL 1050   79 81  240/ 12/ 14 1014.9    1

$$



USA.gov is the U.S. government's official web portal to all federal, state and local government web resources and services.